GEFSMA_con_probscp_336.txt.gz
Probability
0 0 0 0 0 0 0 0 0 0 0 0 0 0 0 1 2 2 2 3 6 7 7 7 6 6 4 3 3 3 4 4 4 3 2 1 0 0 0 0 1 2 2
0 0 0 0 0 0 0 0 0 0 0 0 1 1 1 1 3 3 2 3 5 7 8 7 6 6 4 3 3 4 4 4 4 2 1 0 0 0 0 1 2 3 3
0 0 0 0 1 1 1 0 0 0 0 1 2 2 2 2 2 3 2 2 4 7 7 6 6 6 5 4 4 4 5 5 4 2 1 1 0 0 0 1 2 2 2
1 0 1 1 2 2 1 1 1 1 1 2 2 1 1 1 1 3 3 3 3 4 5 5 6 5 4 3 4 4 5 5 5 3 2 2 1 1 0 0 1 1 1
2 1 2 2 2 2 1 1 1 2 2 2 2 1 1 1 1 2 3 3 3 3 3 4 5 5 4 4 5 6 6 6 6 5 4 4 3 3 2 0 0 0 0
2 2 2 1 1 1 1 0 1 1 2 2 2 2 2 2 2 2 2 3 4 3 3 2 3 4 3 4 6 8 8 8 7 6 6 6 6 5 4 2 1 0 0
2 1 1 1 0 0 0 0 1 2 2 3 3 3 2 1 1 1 2 3 4 4 3 2 2 3 3 4 5 7 8 8 8 7 6 6 7 7 6 5 3 1 0
1 0 0 0 1 1 0 0 1 2 3 3 3 3 2 0 0 0 1 2 3 3 3 3 2 3 3 3 4 5 6 7 8 7 6 6 7 7 7 6 5 3 1
0 0 0 1 2 2 1 1 1 2 3 3 3 3 2 1 0 0 0 1 1 1 2 3 3 3 3 3 3 3 4 6 8 9 7 6 7 7 6 6 6 5 2
0 0 0 1 2 3 3 2 2 3 3 3 2 2 1 1 0 0 0 0 0 0 1 3 4 4 3 3 3 3 3 5 7 9 9 7 6 6 5 5 6 5 4
0 0 0 1 3 3 3 3 3 3 3 3 2 1 1 1 1 1 1 0 0 0 0 2 3 3 3 4 3 3 4 5 6 8 9 9 8 7 7 5 5 5 4
1 1 1 2 3 3 3 4 4 4 3 3 2 2 2 2 2 2 2 1 0 0 0 0 2 3 4 4 4 4 5 6 5 6 8 9 9 11 10 8 5 4 4
2 2 3 3 3 4 4 5 6 5 4 3 3 3 3 3 4 4 4 3 1 0 0 1 2 3 3 3 4 5 6 6 6 5 6 7 9 11 12 10 8 6 4
3 3 3 3 4 5 6 8 8 7 6 5 3 3 3 4 5 6 6 5 3 1 0 1 2 2 1 1 3 4 4 5 5 4 3 4 6 8 9 10 9 8 7
3 3 3 3 4 5 7 9 10 9 7 6 5 4 4 4 5 7 7 7 5 3 2 2 2 1 1 1 1 2 3 4 4 3 2 2 3 4 6 7 7 8 8
3 3 3 4 5 6 7 9 10 10 8 7 6 6 6 6 7 7 8 8 7 6 6 6 4 3 3 2 1 1 2 3 3 2 1 1 2 3 4 4 5 6 6
5 5 5 6 7 8 9 11 12 11 10 8 8 8 8 9 9 9 9 9 10 10 10 9 8 6 5 4 2 1 2 3 3 3 1 0 1 2 2 3 4 4 4
9 8 8 9 10 10 12 14 14 13 12 11 11 10 9 10 11 12 12 13 14 15 15 12 10 8 6 5 4 3 3 4 4 3 2 0 0 1 1 1 2 2 2
13 12 11 12 12 12 13 15 15 14 14 14 13 12 11 12 14 15 15 15 17 18 18 15 11 9 7 6 5 3 3 3 3 2 1 0 0 0 0 0 1 1 1
17 16 15 15 14 13 12 13 13 12 13 14 14 13 13 13 13 13 15 16 17 18 17 15 12 9 7 5 3 2 2 2 1 1 0 0 0 1 1 0 0 0 0
20 19 18 17 15 13 11 11 11 11 12 13 14 13 13 11 10 10 12 13 14 14 14 12 11 8 5 3 1 1 0 0 0 0 0 0 1 2 2 1 0 0 0
20 20 19 18 17 14 12 10 10 11 12 13 14 13 12 10 8 7 9 9 9 10 10 9 7 5 4 2 1 0 0 0 0 0 0 1 2 3 3 2 0 0 0
20 20 20 20 19 16 12 10 10 11 12 13 13 13 12 9 6 6 6 5 4 5 5 4 3 2 3 3 2 0 0 0 0 0 0 1 2 3 3 2 1 0 0
20 20 20 20 19 17 13 10 9 9 10 10 10 11 10 7 4 3 3 3 3 3 2 1 1 1 2 2 1 0 0 0 0 0 0 1 2 2 3 2 1 0 0
20 19 19 18 17 16 13 9 8 9 9 8 7 7 8 6 3 2 2 3 3 3 1 0 0 0 1 1 0 0 0 0 0 0 0 1 2 2 2 2 1 0 0
19 19 17 16 15 14 11 8 7 8 9 8 6 6 6 6 3 2 2 3 3 2 1 0 0 0 0 0 0 0 0 0 0 0 0 1 2 3 2 1 0 0 0

GEFSMA_con_probscp_342.txt.gz
Probability
2 3 3 1 0 0 0 0 0 0 0 0 0 0 0 0 0 0 0 0 0 0 0 0 1 1 1 0 0 0 0 1 2 3 3 2 2 2 3 4 3 3 4
2 2 2 1 0 0 0 0 0 0 0 0 0 0 1 1 0 0 0 0 0 0 0 0 0 1 0 0 0 0 0 0 2 3 3 3 2 2 2 3 4 4 3
1 1 1 1 0 0 0 0 0 0 0 0 0 0 1 1 0 0 0 0 0 0 0 0 0 1 0 0 0 0 0 0 1 2 3 3 3 2 1 2 4 5 4
0 0 0 0 0 0 0 0 0 0 0 0 0 0 1 1 0 0 0 0 0 0 0 0 0 0 0 0 0 1 1 1 1 2 2 3 3 2 1 2 4 5 6
0 0 0 0 0 0 0 0 0 0 0 0 0 0 0 0 0 0 0 0 0 0 0 0 0 0 0 0 1 2 2 1 1 2 2 1 2 3 2 2 3 4 5
0 0 0 0 0 0 0 0 0 0 0 0 0 0 0 0 0 0 0 0 0 0 0 0 0 0 0 1 1 2 3 2 2 3 3 2 3 4 3 3 3 3 4
0 0 0 0 0 0 0 0 0 0 0 0 0 0 0 0 0 0 0 0 0 0 0 0 0 0 0 1 1 1 1 2 2 4 5 5 5 5 5 5 5 5 6
0 0 0 0 0 0 0 0 0 0 0 0 0 0 0 0 0 0 0 0 0 0 0 0 1 0 0 1 1 0 0 1 2 4 6 6 6 6 6 6 6 7 7
0 0 0 0 0 1 2 1 0 0 0 0 0 0 0 0 0 0 0 0 0 0 0 0 0 0 0 0 0 0 0 0 0 3 5 6 7 8 9 8 7 7 8
0 0 0 0 1 2 3 2 1 1 0 0 0 0 0 0 0 0 0 0 0 0 0 0 0 0 0 0 0 0 1 1 0 1 3 4 7 10 10 9 7 7 8
0 0 0 1 2 3 3 3 3 2 1 0 1 1 1 1 1 2 1 1 0 0 0 0 0 0 0 1 1 2 3 2 1 0 1 2 5 7 8 8 7 7 7
0 0 0 1 2 3 3 3 3 2 1 1 2 2 2 2 3 3 3 2 1 1 0 0 0 0 1 2 2 3 4 2 1 0 0 1 1 3 5 7 7 7 7
0 0 0 0 1 1 2 2 1 1 0 1 3 4 4 3 3 3 3 3 3 2 1 1 0 0 1 2 2 2 2 1 0 0 0 0 0 0 2 5 6 6 7
0 0 0 0 0 0 1 1 1 1 1 1 3 6 6 5 4 5 5 5 4 3 3 2 1 1 1 1 1 0 0 0 0 0 0 0 0 0 0 2 3 5 6
0 0 1 1 1 1 1 2 2 3 3 2 4 7 7 7 7 7 8 8 6 6 6 5 3 3 3 2 0 0 0 0 0 0 0 0 0 0 0 0 1 3 3
1 1 2 2 2 2 3 3 3 3 4 4 5 6 6 8 9 9 9 9 9 8 8 7 5 4 4 3 1 1 1 0 0 0 0 0 0 0 0 0 0 1 1
2 3 3 3 3 3 3 2 2 2 4 5 6 6 6 6 7 8 9 10 11 11 11 10 9 7 5 3 2 2 1 1 0 0 0 0 0 0 0 0 0 0 0
3 3 3 3 3 3 1 1 1 2 4 5 6 7 6 6 5 6 8 10 10 10 11 12 12 11 7 3 1 1 1 1 1 0 0 0 0 0 0 0 0 0 0
3 3 3 2 3 2 1 1 2 4 6 7 7 7 7 6 5 5 6 7 8 7 8 10 12 12 8 4 2 1 1 1 1 0 0 0 0 0 0 0 0 0 0
2 3 2 2 2 3 3 4 5 6 7 8 8 7 8 8 7 6 6 5 4 4 5 7 9 9 7 4 2 2 1 0 0 0 0 0 0 0 0 0 0 0 0
3 3 3 3 3 3 3 5 6 6 7 8 8 9 9 8 6 4 3 3 3 3 4 6 7 7 6 4 3 2 1 1 1 1 0 0 0 1 1 1 0 0 0
6 5 4 4 4 4 3 3 4 5 6 7 9 10 10 8 4 2 1 1 2 2 3 5 6 6 6 4 3 3 2 2 2 2 1 0 1 2 2 1 0 0 0
8 7 5 4 4 4 2 1 2 4 6 8 10 11 10 7 4 3 2 1 1 1 2 4 6 6 6 5 4 3 3 3 3 2 1 0 1 2 2 1 0 0 0
9 8 7 6 5 3 2 1 1 3 6 7 8 9 8 7 5 4 3 2 1 1 1 2 3 4 4 3 3 3 3 3 3 2 0 0 1 2 2 1 0 0 0
7 8 8 8 7 4 2 1 1 3 5 7 7 7 7 6 6 5 5 5 4 3 2 1 1 1 1 1 1 2 3 3 2 1 0 0 0 1 2 1 0 0 0
6 7 9 9 8 6 3 1 1 3 5 6 6 6 6 6 6 5 6 7 7 6 5 3 1 0 0 0 0 1 3 3 2 1 0 0 0 1 2 1 0 0 0

GEFSMA_con_probscp_348.txt.gz
Probability
3 3 4 3 1 1 1 1 0 0 0 0 0 0 0 0 0 1 1 1 0 0 0 0 0 0 0 0 0 0 0 0 1 1 2 2 2 1 1 2 4 5 5
4 3 3 3 1 1 1 1 0 0 0 0 0 0 0 0 0 0 0 0 0 0 0 0 0 0 0 0 0 0 0 0 1 1 1 1 1 0 0 1 2 4 5
4 4 4 3 1 1 1 0 0 0 0 0 0 0 0 0 0 0 0 0 0 0 0 0 0 0 0 0 0 0 0 0 1 1 0 0 0 0 0 0 1 3 4
4 5 4 3 1 1 0 0 0 0 0 0 0 0 0 0 0 0 0 0 1 1 0 0 0 0 0 0 0 0 1 1 0 0 0 0 0 0 0 0 1 2 2
3 4 4 3 2 1 1 1 0 0 0 0 0 0 0 1 0 0 0 1 2 2 1 1 1 1 0 1 1 2 3 3 1 1 1 0 0 0 0 0 0 1 1
1 2 3 3 3 3 2 1 0 0 0 0 0 0 1 1 0 0 0 1 2 2 2 3 3 3 2 2 2 4 5 5 4 3 3 2 1 1 1 1 0 0 0
0 1 2 3 4 5 4 2 1 0 0 0 0 0 1 0 0 0 0 1 2 3 3 4 5 6 4 3 3 4 5 5 5 4 4 5 4 3 2 1 0 1 1
0 0 1 1 3 5 5 4 2 1 0 0 0 0 0 0 0 0 0 1 1 3 4 4 6 8 8 6 4 3 4 5 5 5 6 7 6 5 4 3 2 2 2
1 1 1 1 2 4 4 4 3 1 0 0 0 0 0 1 1 0 0 0 1 2 3 2 5 9 11 10 7 4 3 3 4 5 7 8 7 6 5 5 3 3 3
2 2 2 1 2 3 3 3 2 1 1 2 2 2 2 3 3 2 1 1 1 2 2 2 4 7 10 12 12 7 3 3 3 4 5 7 6 6 6 5 4 5 6
2 2 1 2 2 3 3 3 3 3 4 4 4 5 5 5 5 5 4 3 3 4 4 4 4 5 6 10 11 7 3 3 3 3 4 4 4 5 5 5 4 6 9
1 1 0 1 1 2 3 4 5 6 6 6 6 6 6 6 6 6 6 5 5 5 6 6 5 5 5 7 7 5 3 2 2 3 3 3 3 3 4 4 5 6 8
1 1 1 1 1 3 4 4 5 6 7 7 7 6 6 6 6 6 6 6 6 5 6 7 7 6 6 7 7 4 2 1 1 1 2 3 3 3 3 3 3 4 5
3 3 3 3 3 5 6 5 5 6 8 8 7 6 6 6 6 6 7 7 6 6 7 8 9 9 9 9 8 6 4 2 0 0 1 2 3 3 2 1 1 1 1
4 4 4 4 4 5 6 5 5 6 7 7 6 6 5 6 6 7 8 9 9 8 8 9 11 11 11 11 10 9 7 4 1 0 0 1 2 1 1 0 0 0 0
6 5 4 3 3 4 4 4 5 6 6 5 5 5 5 6 7 8 9 11 11 11 9 9 11 12 13 13 13 11 9 6 3 1 0 0 0 0 0 0 0 0 0
9 9 8 5 3 2 3 4 4 4 4 3 4 5 5 7 9 10 11 12 13 13 10 9 10 12 14 15 15 13 10 8 6 2 0 0 0 0 0 0 0 0 0
11 12 13 11 7 4 4 4 4 3 4 4 5 5 6 8 10 11 12 13 14 13 12 10 10 11 12 14 16 13 10 9 8 4 1 0 0 0 0 0 0 0 0
12 13 15 15 11 8 7 7 6 6 6 6 7 7 7 8 10 11 14 15 14 14 14 12 11 10 10 11 12 10 8 8 7 4 2 1 0 0 0 0 0 0 0
11 13 15 15 13 12 11 11 11 11 11 9 8 8 7 7 9 11 13 14 15 15 14 11 10 10 10 10 10 9 7 7 5 4 3 2 2 2 1 0 0 0 0
13 16 18 16 14 13 11 11 12 15 16 13 10 10 9 8 8 9 10 11 12 13 12 10 8 9 11 12 12 10 8 7 5 4 3 4 4 5 4 2 1 0 0
14 17 18 16 14 11 8 5 7 12 16 16 13 12 12 11 10 8 6 5 7 8 10 10 9 9 12 14 14 12 9 8 8 6 5 5 6 7 7 5 2 0 0
14 15 15 14 12 9 5 2 2 5 10 13 13 12 12 12 11 9 6 5 5 6 7 9 11 11 12 14 15 14 13 12 11 9 7 7 7 9 9 7 3 0 0
14 14 14 13 12 9 4 1 0 2 5 8 10 9 9 10 11 10 10 9 9 8 6 7 10 10 10 13 16 16 15 14 12 12 11 9 8 10 12 10 4 1 0
13 14 14 14 13 10 5 1 1 3 5 7 8 7 7 8 10 11 12 13 13 11 9 7 6 5 5 7 11 14 16 14 13 14 15 13 11 12 14 13 7 3 1
13 13 14 15 14 10 6 2 1 4 7 10 9 7 5 6 9 11 13 14 13 12 11 8 4 2 1 2 6 12 16 16 14 14 18 17 13 13 14 14 11 6 3

GEFSMA_con_probscp_354.txt.gz
Probability
13 11 10 8 6 4 3 3 3 2 2 2 1 2 4 5 5 4 3 5 7 9 10 10 10 8 7 5 2 0 1 2 2 1 0 0 0 1 2 3 2 1 0
15 14 12 10 7 5 4 4 4 3 3 3 3 3 6 6 5 4 3 3 5 8 10 11 10 8 7 5 3 1 1 1 1 0 0 0 0 1 1 2 1 1 0
15 16 15 12 10 8 6 4 2 2 2 2 2 4 6 7 8 6 4 3 4 7 10 12 11 9 7 6 4 2 1 1 1 0 0 1 1 0 0 0 0 0 0
13 15 15 13 11 9 7 3 1 1 0 0 1 4 6 8 10 10 8 6 6 7 10 12 12 10 9 8 7 5 3 3 2 1 1 2 2 1 0 0 0 0 0
12 12 11 10 9 8 6 4 3 3 2 1 1 4 6 9 12 11 10 9 8 9 11 13 13 12 12 13 11 8 6 6 5 5 4 4 4 3 2 1 0 0 0
11 10 9 8 7 7 7 7 6 5 4 2 2 4 6 9 11 12 11 11 11 10 13 16 15 14 14 15 14 11 8 8 10 10 9 7 7 6 4 3 2 1 1
9 8 7 8 9 8 8 8 7 6 4 2 2 4 6 8 10 12 13 15 14 12 13 17 18 17 16 15 13 11 9 10 11 12 11 10 9 8 6 5 4 2 2
7 6 6 8 10 10 9 8 7 5 3 1 1 3 5 7 7 9 12 14 15 14 13 15 19 21 18 15 12 10 10 11 11 10 10 10 9 8 7 7 6 5 4
7 6 6 8 10 10 8 6 4 2 1 0 1 2 4 4 4 5 6 8 12 13 12 12 16 20 20 18 14 10 9 11 11 10 9 8 7 7 8 8 7 6 6
10 9 9 11 11 9 7 4 2 1 1 1 3 4 4 3 3 3 3 4 6 11 12 11 13 18 19 18 16 11 9 9 10 10 9 7 6 7 8 7 6 6 6
14 14 14 14 13 10 7 5 3 2 2 2 3 4 5 4 3 3 3 3 4 8 12 12 13 16 17 17 15 12 10 9 10 10 9 8 7 7 7 5 5 5 5
16 16 17 17 16 13 10 7 5 4 4 3 3 4 5 4 3 2 3 3 3 7 12 14 15 17 18 17 14 11 9 9 9 9 9 7 6 5 5 5 4 3 4
15 17 18 20 20 16 11 8 6 6 6 5 4 4 4 3 3 4 3 3 3 5 9 13 17 19 19 18 14 8 6 6 5 6 7 6 5 4 4 4 3 3 3
14 17 19 22 22 18 13 10 9 8 7 6 5 5 5 5 7 8 6 4 3 4 6 10 15 18 20 19 13 8 6 5 3 3 4 5 5 5 4 3 3 3 3
15 18 21 22 22 21 19 16 14 11 9 7 8 9 9 9 9 9 7 5 4 4 5 6 10 15 17 15 10 9 9 6 3 1 2 3 4 5 4 3 3 3 3
22 22 22 22 24 25 25 22 18 15 12 12 12 13 12 11 10 8 7 6 5 4 5 6 7 11 14 11 9 9 9 6 4 2 1 1 2 3 2 1 2 3 3
27 25 23 23 25 26 27 25 19 15 15 17 16 15 14 13 11 9 6 6 5 5 6 5 5 8 11 10 10 11 8 5 3 2 0 0 1 1 0 0 1 2 2
25 23 23 24 24 25 25 23 19 15 15 18 18 17 16 15 14 10 7 6 6 6 6 5 5 7 10 10 12 12 8 4 3 2 1 0 0 0 0 0 0 1 1
22 22 23 23 23 24 23 21 18 16 15 16 18 18 18 18 16 14 12 10 9 8 7 6 6 8 9 11 12 11 8 5 4 3 1 1 0 0 0 0 0 0 0
22 22 22 21 23 24 23 21 19 18 16 15 15 18 18 17 15 14 14 14 11 9 9 9 9 9 9 11 12 11 10 8 6 5 4 3 2 0 0 0 0 0 0
20 21 20 20 20 20 18 18 18 18 17 15 14 15 15 13 10 10 10 10 9 9 9 9 9 9 9 11 13 14 13 12 10 8 7 6 4 2 2 1 0 0 0
19 20 19 16 15 12 10 9 12 15 16 14 13 12 11 8 6 6 5 4 5 7 8 8 7 8 8 10 13 16 16 14 12 11 9 7 6 5 5 4 2 0 0
18 20 18 15 12 8 4 3 6 11 13 13 12 11 9 7 7 8 7 5 6 6 6 6 6 7 9 10 13 15 14 12 12 12 11 9 7 7 7 5 2 0 0
16 16 17 16 13 8 3 1 3 7 11 12 12 11 11 9 8 9 10 11 11 9 6 4 4 6 8 10 13 14 13 10 10 12 12 11 9 8 8 7 3 0 0
13 13 13 14 14 11 5 1 2 7 10 11 10 9 10 9 7 7 10 14 15 13 9 5 4 4 5 6 10 13 12 10 9 11 14 14 11 10 10 10 6 1 0
12 11 11 12 14 14 9 2 2 7 11 11 10 8 6 6 5 5 8 13 15 13 10 7 4 2 1 3 7 11 12 11 9 11 15 17 14 12 12 13 9 2 0

GEFSMA_con_probscp_360.txt.gz
Probability
0 0 0 0 0 0 0 0 0 0 0 0 0 0 0 0 0 0 1 3 5 5 5 4 3 2 1 0 0 0 0 0 1 0 0 0 0 0 0 1 3 5 6
0 0 0 0 0 0 0 0 0 0 0 0 0 0 0 0 0 0 0 2 3 4 5 5 4 2 1 0 0 0 0 0 1 0 0 0 0 0 0 0 2 4 5
0 0 0 0 0 0 0 0 0 0 0 0 0 0 0 0 0 0 0 0 1 4 5 6 6 5 4 3 1 0 0 0 1 0 0 0 0 0 0 0 1 3 4
0 0 0 0 0 0 0 0 0 0 0 0 0 0 0 0 0 0 0 0 1 3 5 7 8 8 8 6 3 1 0 1 1 1 0 0 0 1 0 0 1 2 3
1 0 0 0 0 0 0 0 0 0 0 0 0 0 0 0 0 0 0 0 0 2 3 5 8 9 9 8 5 2 1 1 2 2 1 1 1 2 2 1 1 2 3
2 1 0 0 0 0 0 0 0 0 0 0 0 0 0 0 0 0 0 0 0 1 1 3 5 6 7 7 6 5 3 2 4 4 4 4 4 5 5 4 2 2 3
3 2 1 0 0 0 0 0 0 0 0 0 0 0 0 0 0 0 0 0 0 0 0 2 2 3 4 6 6 7 6 5 5 7 7 7 8 8 8 6 3 3 3
2 2 2 1 0 0 0 0 0 0 0 0 0 0 0 0 0 0 0 0 0 0 0 1 1 0 1 2 5 7 8 7 6 7 7 7 7 7 6 5 5 4 4
1 2 2 1 0 0 0 0 0 0 0 0 0 0 0 0 0 0 0 0 0 0 0 0 0 0 0 1 3 6 8 8 7 6 6 6 6 6 5 5 6 6 6
2 3 3 2 1 0 0 0 0 0 0 0 0 0 0 0 0 0 0 0 0 0 0 1 0 0 1 1 1 2 5 6 6 6 6 6 6 6 6 6 6 6 6
4 4 4 4 2 1 0 0 0 0 0 0 0 0 0 0 0 0 0 0 0 0 0 0 0 1 3 4 3 2 2 2 2 3 4 5 5 6 6 6 6 6 6
5 6 6 5 4 3 2 1 1 1 1 1 0 0 0 0 0 0 0 0 0 0 0 0 0 1 3 5 5 3 1 0 0 1 2 2 2 4 4 4 4 4 4
5 6 6 6 6 5 5 4 3 3 3 2 1 1 0 0 0 0 0 0 0 0 0 1 0 0 2 4 4 3 2 1 0 0 0 0 0 1 2 2 3 3 3
5 6 6 6 6 6 6 6 6 5 4 3 3 2 1 1 2 2 2 2 1 0 0 0 0 0 0 1 1 1 2 2 1 0 0 0 0 0 0 1 1 3 3
6 6 5 4 5 5 6 6 6 6 5 4 3 3 3 4 4 4 4 4 3 1 0 0 0 0 0 0 0 1 2 2 1 0 0 0 0 0 0 0 1 2 3
6 6 5 4 4 6 6 6 6 6 5 4 3 3 4 4 4 5 5 5 4 2 1 0 0 0 0 0 0 0 1 1 1 0 0 0 0 0 0 0 0 1 2
6 6 5 3 3 4 5 5 6 6 5 4 4 4 5 4 3 4 4 4 3 3 2 1 0 0 0 0 0 0 0 0 0 0 0 0 0 0 0 0 0 0 1
4 4 4 3 2 2 2 3 4 4 5 5 4 5 5 5 4 4 5 4 4 4 3 2 1 1 0 0 0 0 0 0 0 0 0 0 0 0 0 0 0 0 0
4 4 4 2 2 1 1 1 1 1 2 3 4 4 5 4 4 4 4 5 5 5 4 4 3 2 1 1 1 1 1 1 0 0 0 0 0 0 0 0 0 0 0
5 4 3 2 1 1 1 0 1 1 0 0 1 2 3 3 3 3 3 4 4 4 5 4 4 3 3 2 2 2 2 2 1 0 0 0 0 0 0 0 0 0 0
6 5 4 3 2 1 1 1 2 2 1 0 0 0 1 2 3 3 2 2 3 3 4 4 4 4 3 3 3 3 3 3 2 1 0 0 0 0 0 0 0 0 0
6 6 5 5 4 2 1 0 1 1 0 0 0 0 0 1 2 2 1 1 1 2 3 3 4 4 4 3 2 2 3 4 3 2 1 1 1 1 0 0 0 0 0
5 5 5 6 5 3 1 0 0 0 0 0 0 0 0 0 1 2 1 1 1 1 1 2 3 3 4 4 3 2 3 4 4 3 2 2 2 1 0 0 0 0 0
4 5 6 5 4 3 1 0 0 0 0 0 0 0 0 0 1 2 3 2 2 1 0 1 1 1 2 3 3 2 2 3 4 3 2 2 2 1 0 0 0 0 0
7 7 7 5 4 2 1 0 0 0 0 0 0 0 0 0 1 2 3 3 3 2 1 0 0 0 1 1 2 2 1 2 3 3 1 1 1 1 0 0 0 0 0
10 9 7 5 4 2 1 0 0 0 0 0 0 0 0 0 0 1 3 3 3 3 2 1 0 0 0 0 1 1 1 2 3 2 1 0 0 0 0 0 0 0 0

GEFSMA_con_probscp_366.txt.gz
Probability
0 0 0 0 0 0 0 0 0 0 0 0 0 0 0 0 0 0 0 0 1 3 5 6 5 5 5 4 3 3 3 2 1 0 0 0 1 2 3 3 2 1 0
0 0 0 0 0 0 0 0 0 0 0 0 0 0 0 0 0 0 0 0 1 3 5 6 5 6 6 5 4 3 4 4 2 0 0 0 0 2 3 2 1 0 0
0 0 0 0 0 0 0 0 0 0 0 0 0 0 0 0 0 0 0 0 1 3 4 4 4 6 7 6 5 4 5 5 3 1 0 0 0 1 2 1 0 0 0
0 0 0 0 0 0 0 0 0 0 0 0 0 0 0 0 0 0 0 0 0 1 2 3 3 5 7 7 5 4 4 4 3 1 1 1 0 1 1 0 0 0 0
0 0 0 0 0 0 0 0 0 0 0 0 0 0 0 0 0 0 0 0 0 0 1 1 2 4 6 7 5 4 4 3 2 2 2 2 2 2 2 1 1 0 0
0 0 0 0 0 0 0 0 0 0 0 0 0 0 0 0 0 1 1 1 0 0 0 0 1 2 5 7 7 6 5 4 3 3 3 3 3 5 5 4 2 1 1
0 0 0 0 0 0 0 0 0 0 0 0 0 0 0 0 1 2 2 1 1 1 1 1 1 1 2 4 6 7 6 5 4 3 3 3 4 5 6 5 4 3 2
0 0 0 0 0 0 0 0 0 0 0 0 0 0 0 0 1 1 1 1 1 1 2 2 2 2 1 1 3 4 5 4 3 3 2 2 3 3 4 5 4 4 4
0 0 0 0 0 0 0 0 0 0 0 0 0 0 0 0 0 0 0 0 0 1 1 2 2 2 1 0 1 2 2 2 3 3 2 1 1 1 2 3 4 4 4
0 0 0 0 0 0 0 0 0 0 0 0 0 0 0 0 0 0 0 0 0 0 0 1 1 1 1 0 0 1 1 2 5 5 3 1 1 1 1 1 2 3 3
0 0 0 0 0 1 1 0 0 0 0 1 1 1 0 0 0 0 0 0 0 0 0 0 0 0 0 0 0 0 0 2 4 5 4 3 2 2 2 1 1 2 3
0 0 0 1 1 2 2 1 1 1 1 2 2 2 1 1 1 0 1 1 0 0 0 0 0 0 0 0 0 0 0 0 2 3 4 3 3 2 2 3 3 3 3
0 0 0 1 2 3 3 3 2 2 3 3 3 3 3 3 3 2 3 2 1 1 1 0 0 0 0 0 0 0 0 0 0 1 2 2 1 1 2 3 4 3 3
1 0 0 1 2 2 2 2 3 3 3 3 3 3 3 3 4 5 6 5 3 3 2 1 0 0 0 0 0 0 0 0 0 0 1 1 0 0 1 1 2 2 2
2 1 0 0 1 1 1 1 1 2 2 2 2 2 2 2 3 5 7 7 5 5 4 2 1 0 0 0 0 0 0 0 0 0 0 0 0 0 0 0 0 0 1
2 1 0 0 0 0 0 0 0 1 1 1 1 2 1 1 1 2 5 6 6 6 6 3 1 0 0 0 0 0 0 0 0 0 0 0 0 0 0 0 0 0 0
2 1 1 0 0 0 0 0 0 0 0 1 2 2 1 0 0 0 2 4 6 7 6 4 2 1 0 0 1 1 0 0 0 0 0 0 0 0 0 0 0 0 0
3 3 2 1 0 0 0 0 0 1 1 2 3 2 1 1 0 0 1 3 5 6 6 4 2 2 2 2 1 1 0 0 0 0 0 0 0 0 0 0 0 0 0
3 3 3 1 0 0 0 0 1 2 3 3 3 2 2 1 1 1 2 3 4 5 5 3 2 3 3 3 2 1 1 1 0 0 0 0 0 0 0 0 0 0 0
3 3 3 2 1 0 0 1 2 3 3 3 2 1 1 1 1 1 1 1 3 4 4 3 3 3 3 3 3 3 2 2 1 0 0 0 0 0 0 0 0 0 0
3 3 3 3 1 0 0 1 2 2 2 1 1 0 0 0 0 0 0 0 1 1 1 2 3 3 3 3 3 3 3 3 2 1 0 0 0 0 0 0 0 0 0
3 3 3 3 2 1 0 0 1 1 1 0 0 0 0 0 0 0 0 0 0 0 0 1 3 3 3 3 3 3 3 3 3 1 1 0 0 0 0 0 0 0 0
5 4 4 3 3 2 1 0 0 0 0 0 0 0 0 0 0 0 0 0 0 0 0 1 2 3 3 3 3 3 3 3 3 3 2 1 0 0 0 0 0 0 0
7 6 4 3 3 2 1 0 0 0 0 0 0 0 0 0 0 0 0 0 0 0 0 1 2 2 2 2 3 3 4 4 4 4 3 2 1 0 0 0 0 0 0
6 6 4 3 3 2 1 0 0 0 0 0 0 0 0 0 0 0 0 0 0 0 0 0 1 1 1 1 1 3 5 5 5 4 4 3 1 1 1 0 0 0 0
4 4 4 3 3 2 1 0 0 0 0 0 0 0 0 0 0 0 0 0 0 0 0 0 0 1 1 1 0 2 5 7 7 5 4 3 2 2 2 1 1 1 0